Flag for Germany Weather past 2 weeks in Kamen, North Rhine-Westphalia, Germany

55 °F

Sprinkles. Partly sunny.

Feels Like: 55 °F
Forecast: 42 / 55 °F
Wind: 3 mph from North

Location: Dortmund / Wickede

Current Time: Oct 9, 2015 at 6:36:04 PM

Latest Report: Oct 9, 2015 at 5:50 PM

Visibility: 4 mi

Pressure: 30.15 "Hg

Humidity: 88%

Dew point: 52 °F

Location of KamenLocation

Historic Weather in Kamen — Graph


Kamen temperature yesterday

Maximum temperature yesterday: 55 °F (at 1:50 PM)
Minimum temperature yesterday: 52 °F (at 6:50 PM)
Average temperature yesterday: 53 °F

Past Weeks' High & Low Weather Summary

High68 °F (Oct 3, 2:50 PM)94% (Sep 26, 5:20 AM)30.66 "Hg (Sep 26, 5:20 AM)
Low36 °F (Oct 2, 6:20 AM)39% (Sep 30, 4:20 PM)29.59 "Hg (Oct 6, 6:20 AM)
Average55 °F72%30.20 "Hg
* Reported Sep 24 5:20 PM — Oct 9 5:20 PM, Kamen, Weather by CustomWeather, © 2015

Note: Actual official high and low records may vary slightly from our data, if they occured in-between our weather recording intervals... More about our weather records


Kamen weather history for previous 24 hours

Time TempWeatherWind HumidityBarometerVisibility
5:20 PM
Fri, Oct 9
55 °FScattered showers. Partly sunny.3 mph88%30.15 "Hg5 mi
4:20 PM55 °FPartly sunny.3 mph88%30.15 "HgN/A
3:50 PM55 °FPartly sunny.3 mph88%30.15 "Hg4 mi
3:20 PM55 °FFog.5 mph88%30.15 "Hg2 mi
2:50 PM55 °FLow clouds.5 mph88%30.15 "HgN/A
2:20 PM54 °FFog.3 mph88%30.18 "Hg3 mi
1:50 PM55 °FFog.5 mph82%30.18 "Hg2 mi
1:20 PM55 °FPartly sunny.3 mph82%30.18 "Hg4 mi
12:50 PM55 °FPartly sunny.3 mph82%30.18 "Hg6 mi
12:20 PM55 °FPartly sunny.3 mph82%30.18 "HgN/A
11:50 AM54 °FPartly sunny.3 mph88%30.18 "Hg6 mi
11:20 AM54 °FPartly sunny.3 mph88%30.18 "HgN/A
10:50 AM54 °FPartly sunny.3 mph82%30.18 "Hg4 mi
10:20 AM54 °FPartly sunny.3 mph82%30.18 "Hg4 mi
9:50 AM52 °FPartly sunny.2 mph88%30.18 "Hg4 mi
9:20 AM52 °FPartly sunny.3 mph88%30.18 "Hg4 mi
8:50 AM52 °FBroken clouds.2 mph88%30.18 "Hg5 mi
8:20 AM52 °FPartly cloudy.2 mph88%30.18 "Hg5 mi
7:50 AM52 °FPassing clouds.1 mph88%30.15 "Hg4 mi
7:20 AM52 °FPassing clouds.1 mph88%30.15 "HgN/A
6:50 AM52 °FPassing clouds.3 mph88%30.15 "HgN/A
6:20 AM52 °FPassing clouds.2 mph88%30.15 "HgN/A
5:50 AM52 °FPassing clouds.2 mph88%30.15 "HgN/A
5:20 AM52 °FPassing clouds.2 mph88%30.18 "HgN/A
10:50 PM
Thu, Oct 8
52 °FPassing clouds.5 mph94%30.18 "HgN/A
10:20 PM54 °FPassing clouds.6 mph88%30.18 "Hg4 mi
9:50 PM52 °FPassing clouds.6 mph94%30.18 "HgN/A
9:20 PM52 °FPassing clouds.6 mph94%30.15 "Hg4 mi
8:50 PM52 °FPassing clouds.7 mph94%30.15 "Hg4 mi
8:20 PM52 °FPassing clouds.7 mph94%30.15 "Hg4 mi
7:50 PM52 °FPartly sunny.5 mph88%30.15 "HgN/A
7:20 PM52 °FOvercast.6 mph88%30.15 "Hg5 mi
6:50 PM52 °FOvercast.6 mph88%30.15 "HgN/A
6:20 PM54 °FOvercast.6 mph82%30.15 "HgN/A
Weather by CustomWeather, © 2015

See weather overviewHow to use our weather pages